User: anonymous   Login
Location: Unspecified
(0.0000°N, 0.0000°E)
Time: 20:05:25
(UTC+00:00)
Language:

Vela 3B - Orbit

View from above orbital plane
View from above orbital plane
View from above satellite
View from above satellite

Ground track
Ground track

The orbit data is extracted from the following two-line orbital elements,

1 01459U 65058B   14333.15271907 -.00000531  00000-0  00000+0 0   168
2 01459 002.5817 036.6837 4449466 299.6545 000.2992 00.21416020 39015
Epoch (UTC): 29 November 2014 03:39:54
Eccentricity: 0.4449466
inclination: 2.5817°
perigee height: 59121 km
apogee height: 164134 km
right ascension of ascending node: 36.6837°
argument of perigee: 299.6545°
revolutions per day: 0.21416020
mean anomaly at epoch: 0.2992°
orbit number at epoch: 3901

The dashed part of the orbit path shows where the satellite is in the earth's shadow,  

DLR